Location: Newark
(48.9886°N, 1.2358°E)
Time: 13:15:37
(UTC+00:00)

Transit 4A - Pass Details

Date: 25 November 2019
Orbit: 870 x 975 km, 66.8° (Epoch: 13 December)

Event Time Altitude Azimuth Distance (km) Brightness Sun altitude
Exits shadow 06:15:11 12° 304° (NW) 2,402 9.4 -10.2°
Maximum altitude 06:19:35 28° 250° (WSW) 1,593 8.7 -9.6°
Drops below altitude 10° 06:24:24 10° 194° (SSW) 2,511 10.3 -8.8°
Sets 06:27:11 0° 183° (S) 3,443 11.1 -8.4°
